Simultaneous Nadir Overpasses (SNOs) Predictions

Prediction of SNOs between METOP-A and NOAA-19 Satellite Orbit:

Table of predicted SNOs for the next 14.0 days since TLE Epoch: 6/5/2015
Index Date (METOP-A) Time (METOP-A) Lat,Lon (METOP-A) SZA (METOP-A ) Date (NOAA-19) Time (NOAA-19) Lat,Lon (NOAA-19) SZA (NOAA-19 ) Distance(km) Time Diff (sec)
1 06/06/2015 01:21:49 75.04, 156.61 52.38 06/06/2015 01:20:43 75.04, 156.49 52.39 3.42 66
2 06/06/2015 02:12:31 -75.01, -36.15 127.66 06/06/2015 02:11:38 -75.00, -36.12 127.67 1.50 53
3 06/06/2015 03:03:11 75.02, 131.20 52.35 06/06/2015 03:02:45 75.01, 131.07 52.35 3.82 26
4 06/06/2015 03:53:53 -74.99, -61.56 127.69 06/06/2015 03:53:40 -74.97, -61.53 127.71 2.11 13
5 06/06/2015 04:44:34 74.95, 105.66 52.27 06/06/2015 04:44:47 74.98, 105.66 52.31 3.62 13
6 06/06/2015 05:35:15 -74.97, -86.96 127.72 06/06/2015 05:35:42 -74.94, -86.95 127.75 2.97 27
7 06/06/2015 06:25:56 74.93, 80.26 52.24 06/06/2015 06:26:49 74.95, 80.24 52.27 2.68 53
8 06/06/2015 07:16:37 -74.94,-112.36 127.75 06/06/2015 07:17:44 -74.91,-112.37 127.79 3.92 67
9 06/16/2015 12:13:24 -75.44, 174.83 127.98 06/16/2015 12:12:15 -75.48, 172.44 127.89 66.80 69
10 06/16/2015 13:04:12 75.06, -18.97 51.66 06/16/2015 13:03:13 75.05, -18.97 51.65 0.99 59
11 06/16/2015 13:54:53 -75.04, 148.30 128.37 06/16/2015 13:54:07 -75.04, 148.33 128.36 0.69 46
12 06/16/2015 14:45:33 75.03, -44.38 51.63 06/16/2015 14:45:14 75.02, -44.39 51.62 1.86 19
13 06/16/2015 15:36:15 -75.02, 122.90
